Time,TemperatureF,DewpointF,PressureIn,WindDirection,WindDirectionDegrees,WindSpeedMPH,WindSpeedGustMPH,Humidity,HourlyPrecipIn,Conditions,Clouds,dailyrainin,SoftwareType,DateUTC
2013-06-21 00:00:00,64.6,55.8,30.26,ESE,115,0.0,0.0,73,0.00,,---,0.00,VWS V14.01,2013-06-21 04:00:00,
2013-06-21 00:01:00,64.6,55.8,30.26,ESE,115,0.0,0.0,73,0.00,,---,0.00,VWS V14.01,2013-06-21 04:01:00,
2013-06-21 00:06:00,64.6,55.8,30.26,ESE,115,0.0,0.0,73,0.00,,---,0.00,VWS V14.01,2013-06-21 04:06:00,
2013-06-21 00:11:00,64.6,55.8,30.26,ESE,115,0.0,0.0,73,0.00,,---,0.00,VWS V14.01,2013-06-21 04:11:00,
2013-06-21 00:16:00,64.1,56.4,30.26,ESE,115,0.0,0.0,76,0.00,,---,0.00,VWS V14.01,2013-06-21 04:16:00,
2013-06-21 00:21:00,63.7,56.4,30.26,ESE,115,0.0,0.0,77,0.00,,---,0.00,VWS V14.01,2013-06-21 04:21:00,
2013-06-21 00:26:00,63.3,56.3,30.26,ESE,115,0.0,0.0,78,0.00,,---,0.00,VWS V14.01,2013-06-21 04:26:00,
2013-06-21 00:30:00,63.2,57.6,30.26,ESE,115,0.0,0.0,82,0.00,,---,0.00,VWS V14.01,2013-06-21 04:30:00,
2013-06-21 00:31:00,63.2,58.0,30.26,ESE,115,0.0,0.0,83,0.00,,---,0.00,VWS V14.01,2013-06-21 04:31:00,
2013-06-21 00:36:00,62.5,57.6,30.27,ESE,115,0.0,0.0,84,0.00,,---,0.00,VWS V14.01,2013-06-21 04:36:00,
2013-06-21 00:41:00,62.1,57.5,30.27,ESE,115,0.0,0.0,85,0.00,,---,0.00,VWS V14.01,2013-06-21 04:41:00,
2013-06-21 00:46:00,61.7,57.5,30.26,ESE,115,0.0,0.0,86,0.00,,---,0.00,VWS V14.01,2013-06-21 04:46:00,
2013-06-21 00:51:00,61.4,57.2,30.27,ESE,115,0.0,0.0,86,0.00,,---,0.00,VWS V14.01,2013-06-21 04:51:00,
2013-06-21 00:56:00,61.2,57.3,30.27,ESE,115,0.0,0.0,87,0.00,,---,0.00,VWS V14.01,2013-06-21 04:56:00,
2013-06-21 01:00:00,60.9,57.0,30.27,ESE,115,0.0,0.0,87,0.00,,---,0.00,VWS V14.01,2013-06-21 05:00:00,
2013-06-21 01:01:00,60.9,57.0,30.27,ESE,115,0.0,0.0,87,0.00,,---,0.00,VWS V14.01,2013-06-21 05:01:00,
2013-06-21 01:06:00,60.7,57.1,30.27,ESE,115,0.0,0.0,88,0.00,,---,0.00,VWS V14.01,2013-06-21 05:06:00,
2013-06-21 01:11:00,60.5,56.6,30.27,ESE,115,0.0,0.0,87,0.00,,---,0.00,VWS V14.01,2013-06-21 05:11:00,
2013-06-21 01:16:00,60.4,57.2,30.27,ESE,115,0.0,0.0,89,0.00,,---,0.00,VWS V14.01,2013-06-21 05:16:00,
2013-06-21 01:21:00,60.1,56.8,30.27,ESE,115,0.0,0.0,89,0.00,,---,0.00,VWS V14.01,2013-06-21 05:21:00,
2013-06-21 01:26:00,59.9,56.7,30.27,ESE,115,0.0,0.0,89,0.00,,---,0.00,VWS V14.01,2013-06-21 05:26:00,
2013-06-21 01:30:00,59.7,56.5,30.28,ESE,115,0.0,0.0,89,0.00,,---,0.00,VWS V14.01,2013-06-21 05:30:00,
2013-06-21 01:31:00,59.7,56.8,30.28,ESE,115,0.0,0.0,90,0.00,,---,0.00,VWS V14.01,2013-06-21 05:31:00,
2013-06-21 01:36:00,59.6,56.4,30.28,ESE,115,0.0,0.0,89,0.00,,---,0.00,VWS V14.01,2013-06-21 05:36:00,
2013-06-21 01:41:00,59.5,56.6,30.28,ESE,115,0.0,0.0,90,0.00,,---,0.00,VWS V14.01,2013-06-21 05:41:00,
2013-06-21 01:46:00,59.4,56.5,30.28,ESE,115,0.0,0.0,90,0.00,,---,0.00,VWS V14.01,2013-06-21 05:46:00,
2013-06-21 01:51:00,59.3,56.4,30.28,ESE,115,0.0,0.0,90,0.00,,---,0.00,VWS V14.01,2013-06-21 05:51:00,
2013-06-21 01:56:00,59.1,56.5,30.28,ESE,115,0.0,0.0,91,0.00,,---,0.00,VWS V14.01,2013-06-21 05:56:00,
2013-06-21 02:00:00,58.9,56.3,30.28,ESE,115,0.0,0.0,91,0.00,,---,0.00,VWS V14.01,2013-06-21 06:00:00,
2013-06-21 02:01:00,58.9,56.3,30.28,ESE,115,0.0,0.0,91,0.00,,---,0.00,VWS V14.01,2013-06-21 06:01:00,
2013-06-21 02:06:00,58.8,56.2,30.28,ESE,115,0.0,0.0,91,0.00,,---,0.00,VWS V14.01,2013-06-21 06:06:00,
2013-06-21 02:11:00,58.7,56.4,30.28,ESE,115,0.0,0.0,92,0.00,,---,0.00,VWS V14.01,2013-06-21 06:11:00,
2013-06-21 02:16:00,58.6,56.3,30.28,ESE,115,0.0,0.0,92,0.00,,---,0.00,VWS V14.01,2013-06-21 06:16:00,
2013-06-21 02:21:00,58.5,56.2,30.28,ESE,115,0.0,0.0,92,0.00,,---,0.00,VWS V14.01,2013-06-21 06:21:00,
2013-06-21 02:26:00,58.4,56.1,30.28,ESE,115,0.0,0.0,92,0.00,,---,0.00,VWS V14.01,2013-06-21 06:26:00,
2013-06-21 02:30:00,58.3,56.0,30.28,ESE,115,0.0,0.0,92,0.00,,---,0.00,VWS V14.01,2013-06-21 06:30:00,
2013-06-21 02:31:00,58.2,55.9,30.28,ESE,115,0.0,0.0,92,0.00,,---,0.00,VWS V14.01,2013-06-21 06:31:00,
2013-06-21 02:36:00,58.1,55.8,30.28,ESE,115,0.0,0.0,92,0.00,,---,0.00,VWS V14.01,2013-06-21 06:36:00,
2013-06-21 02:41:00,58.0,55.7,30.28,ESE,115,0.0,0.0,92,0.00,,---,0.00,VWS V14.01,2013-06-21 06:41:00,
2013-06-21 02:46:00,58.0,56.0,30.28,ESE,115,0.0,0.0,93,0.00,,---,0.00,VWS V14.01,2013-06-21 06:46:00,
2013-06-21 02:51:00,57.8,55.8,30.28,ESE,115,0.0,0.0,93,0.00,,---,0.00,VWS V14.01,2013-06-21 06:51:00,
2013-06-21 02:56:00,57.7,55.7,30.27,ESE,115,0.0,0.0,93,0.00,,---,0.00,VWS V14.01,2013-06-21 06:56:00,
2013-06-21 03:00:00,57.6,55.6,30.28,ESE,115,0.0,0.0,93,0.00,,---,0.00,VWS V14.01,2013-06-21 07:00:00,
2013-06-21 03:01:00,57.6,55.6,30.28,ESE,115,0.0,0.0,93,0.00,,---,0.00,VWS V14.01,2013-06-21 07:01:00,
2013-06-21 03:06:00,57.6,55.6,30.27,ESE,115,0.0,0.0,93,0.00,,---,0.00,VWS V14.01,2013-06-21 07:06:00,
2013-06-21 03:11:00,57.6,55.6,30.28,ESE,115,0.0,0.0,93,0.00,,---,0.00,VWS V14.01,2013-06-21 07:11:00,
2013-06-21 03:16:00,57.5,55.5,30.27,ESE,115,0.0,0.0,93,0.00,,---,0.00,VWS V14.01,2013-06-21 07:16:00,
2013-06-21 03:21:00,57.4,55.4,30.27,ESE,115,0.0,0.0,93,0.00,,---,0.00,VWS V14.01,2013-06-21 07:21:00,
2013-06-21 03:26:00,57.3,55.3,30.27,ESE,115,0.0,0.0,93,0.00,,---,0.00,VWS V14.01,2013-06-21 07:26:00,
2013-06-21 03:30:00,57.4,55.7,30.27,ESE,115,0.0,0.0,94,0.00,,---,0.00,VWS V14.01,2013-06-21 07:30:00,
2013-06-21 03:31:00,57.3,55.6,30.27,ESE,115,0.0,0.0,94,0.00,,---,0.00,VWS V14.01,2013-06-21 07:31:00,
2013-06-21 03:36:00,57.3,55.6,30.27,ESE,115,0.0,0.0,94,0.00,,---,0.00,VWS V14.01,2013-06-21 07:36:00,
2013-06-21 03:41:00,57.3,55.6,30.27,ESE,115,0.0,0.0,94,0.00,,---,0.00,VWS V14.01,2013-06-21 07:41:00,
2013-06-21 03:46:00,57.2,55.5,30.27,ESE,115,0.0,0.0,94,0.00,,---,0.00,VWS V14.01,2013-06-21 07:46:00,
2013-06-21 03:51:00,57.1,55.7,30.26,ESE,115,0.0,0.0,95,0.00,,---,0.00,VWS V14.01,2013-06-21 07:51:00,
2013-06-21 03:56:00,57.0,55.6,30.26,ESE,115,0.0,0.0,95,0.00,,---,0.00,VWS V14.01,2013-06-21 07:56:00,
2013-06-21 04:00:00,56.9,55.5,30.26,ESE,115,0.0,0.0,95,0.00,,---,0.00,VWS V14.01,2013-06-21 08:00:00,
2013-06-21 04:01:00,56.9,55.5,30.26,ESE,115,0.0,0.0,95,0.00,,---,0.00,VWS V14.01,2013-06-21 08:01:00,
2013-06-21 04:06:00,56.8,55.4,30.26,ESE,115,0.0,0.0,95,0.00,,---,0.00,VWS V14.01,2013-06-21 08:06:00,
2013-06-21 04:11:00,56.7,55.3,30.26,ESE,115,0.0,0.0,95,0.00,,---,0.00,VWS V14.01,2013-06-21 08:11:00,
2013-06-21 04:15:00,56.7,55.3,30.26,ESE,115,0.0,0.0,95,0.00,,---,0.00,VWS V14.01,2013-06-21 08:15:00,
2013-06-21 04:20:00,56.5,55.1,30.26,ESE,115,0.0,0.0,95,0.00,,---,0.00,VWS V14.01,2013-06-21 08:20:00,
2013-06-21 04:25:00,56.5,55.1,30.26,ESE,115,0.0,0.0,95,0.00,,---,0.00,VWS V14.01,2013-06-21 08:25:00,
2013-06-21 04:30:00,56.5,55.1,30.26,ESE,115,0.0,0.0,95,0.00,,---,0.00,VWS V14.01,2013-06-21 08:30:00,
2013-06-21 04:35:00,56.3,54.9,30.26,ESE,115,0.0,0.0,95,0.00,,---,0.00,VWS V14.01,2013-06-21 08:35:00,
2013-06-21 04:40:00,56.2,54.8,30.26,ESE,115,0.0,0.0,95,0.00,,---,0.00,VWS V14.01,2013-06-21 08:40:00,
2013-06-21 04:45:00,56.2,54.8,30.26,ESE,115,0.0,0.0,95,0.00,,---,0.00,VWS V14.01,2013-06-21 08:45:00,
2013-06-21 04:50:00,56.1,55.0,30.26,ESE,115,0.0,0.0,96,0.00,,---,0.00,VWS V14.01,2013-06-21 08:50:00,
2013-06-21 04:55:00,56.0,54.9,30.26,ESE,115,0.0,0.0,96,0.00,,---,0.00,VWS V14.01,2013-06-21 08:55:00,
2013-06-21 05:00:00,56.0,54.9,30.26,ESE,115,0.0,0.0,96,0.00,,---,0.00,VWS V14.01,2013-06-21 09:00:00,
2013-06-21 05:05:00,55.9,54.8,30.26,ESE,115,0.0,0.0,96,0.00,,---,0.00,VWS V14.01,2013-06-21 09:05:00,
2013-06-21 05:10:00,55.8,54.7,30.26,ESE,115,0.0,0.0,96,0.00,,---,0.00,VWS V14.01,2013-06-21 09:10:00,
2013-06-21 05:15:00,55.8,54.7,30.26,ESE,115,0.0,0.0,96,0.00,,---,0.00,VWS V14.01,2013-06-21 09:15:00,
2013-06-21 05:20:00,55.8,54.7,30.26,ESE,115,0.0,0.0,96,0.00,,---,0.00,VWS V14.01,2013-06-21 09:20:00,
2013-06-21 05:25:00,55.9,54.8,30.26,ESE,115,0.0,0.0,96,0.00,,---,0.00,VWS V14.01,2013-06-21 09:25:00,
2013-06-21 05:30:00,55.8,54.7,30.26,ESE,115,0.0,0.0,96,0.00,,---,0.00,VWS V14.01,2013-06-21 09:30:00,
2013-06-21 05:35:00,55.9,54.8,30.26,ESE,115,0.0,0.0,96,0.00,,---,0.00,VWS V14.01,2013-06-21 09:35:00,
2013-06-21 05:40:00,55.9,54.8,30.26,ESE,115,0.0,0.0,96,0.00,,---,0.00,VWS V14.01,2013-06-21 09:40:00,
2013-06-21 05:45:00,55.9,54.8,30.26,ESE,115,0.0,0.0,96,0.00,,---,0.00,VWS V14.01,2013-06-21 09:45:00,
2013-06-21 05:50:00,55.8,54.7,30.26,ESE,115,0.0,0.0,96,0.00,,---,0.00,VWS V14.01,2013-06-21 09:50:00,
2013-06-21 05:55:00,55.6,54.5,30.26,ESE,115,0.0,0.0,96,0.00,,---,0.00,VWS V14.01,2013-06-21 09:55:00,
2013-06-21 06:00:00,55.5,54.4,30.26,ESE,115,0.0,0.0,96,0.00,,---,0.00,VWS V14.01,2013-06-21 10:00:00,
2013-06-21 06:05:00,55.6,54.5,30.26,ESE,115,0.0,0.0,96,0.00,,---,0.00,VWS V14.01,2013-06-21 10:05:00,
2013-06-21 06:10:00,55.6,54.5,30.27,ESE,115,0.0,0.0,96,0.00,,---,0.00,VWS V14.01,2013-06-21 10:10:00,
2013-06-21 06:15:00,55.7,54.9,30.27,ESE,115,0.0,0.0,97,0.00,,---,0.00,VWS V14.01,2013-06-21 10:15:00,
2013-06-21 06:20:00,55.8,54.7,30.27,ESE,115,0.0,0.0,96,0.00,,---,0.00,VWS V14.01,2013-06-21 10:20:00,
2013-06-21 06:25:00,55.8,54.7,30.27,ESE,115,0.0,0.0,96,0.00,,---,0.00,VWS V14.01,2013-06-21 10:25:00,
2013-06-21 06:30:00,56.1,55.3,30.27,ESE,115,0.0,0.0,97,0.00,,---,0.00,VWS V14.01,2013-06-21 10:30:00,
2013-06-21 06:35:00,56.2,55.4,30.28,ESE,115,0.0,0.0,97,0.00,,---,0.00,VWS V14.01,2013-06-21 10:35:00,
2013-06-21 06:40:00,56.3,55.5,30.28,ESE,115,0.0,0.0,97,0.00,,---,0.00,VWS V14.01,2013-06-21 10:40:00,
2013-06-21 06:45:00,56.6,55.8,30.28,ESE,115,0.0,0.0,97,0.00,,---,0.00,VWS V14.01,2013-06-21 10:45:00,
2013-06-21 06:50:00,56.9,56.1,30.28,ESE,115,0.0,0.0,97,0.00,,---,0.00,VWS V14.01,2013-06-21 10:50:00,
2013-06-21 06:55:00,57.3,56.5,30.28,ESE,115,0.0,0.0,97,0.00,,---,0.00,VWS V14.01,2013-06-21 10:55:00,
2013-06-21 07:00:00,57.8,57.0,30.28,ESE,115,0.0,0.0,97,0.00,,---,0.00,VWS V14.01,2013-06-21 11:00:00,
2013-06-21 07:05:00,58.3,57.5,30.28,ESE,115,0.0,0.0,97,0.00,,---,0.00,VWS V14.01,2013-06-21 11:05:00,
2013-06-21 07:10:00,58.6,57.8,30.28,ESE,115,0.0,0.0,97,0.00,,---,0.00,VWS V14.01,2013-06-21 11:10:00,
2013-06-21 07:15:00,59.2,58.3,30.29,ESE,115,0.0,0.0,97,0.00,,---,0.00,VWS V14.01,2013-06-21 11:15:00,
2013-06-21 07:20:00,59.7,58.6,30.29,ESE,115,0.0,0.0,96,0.00,,---,0.00,VWS V14.01,2013-06-21 11:20:00,
2013-06-21 07:25:00,60.1,59.0,30.29,ESE,115,0.0,0.0,96,0.00,,---,0.00,VWS V14.01,2013-06-21 11:25:00,
2013-06-21 07:30:00,60.8,59.4,30.29,ESE,115,0.0,0.0,95,0.00,,---,0.00,VWS V14.01,2013-06-21 11:30:00,
2013-06-21 07:35:00,61.3,59.9,30.30,ESE,115,0.0,0.0,95,0.00,,---,0.00,VWS V14.01,2013-06-21 11:35:00,
2013-06-21 07:40:00,62.1,60.4,30.29,ESE,115,0.0,0.0,94,0.00,,---,0.00,VWS V14.01,2013-06-21 11:40:00,
2013-06-21 07:45:00,62.7,60.7,30.30,ESE,115,0.0,0.0,93,0.00,,---,0.00,VWS V14.01,2013-06-21 11:45:00,
2013-06-21 07:50:00,63.2,60.8,30.30,ESE,115,0.0,0.0,92,0.00,,---,0.00,VWS V14.01,2013-06-21 11:50:00,
2013-06-21 07:55:00,64.0,61.3,30.30,ESE,115,0.0,0.0,91,0.00,,---,0.00,VWS V14.01,2013-06-21 11:55:00,
2013-06-21 08:00:00,64.8,61.8,30.30,ESE,115,0.0,0.0,90,0.00,,---,0.00,VWS V14.01,2013-06-21 12:00:00,
2013-06-21 08:05:00,65.6,62.0,30.30,ESE,115,0.0,0.0,88,0.00,,---,0.00,VWS V14.01,2013-06-21 12:05:00,
2013-06-21 08:10:00,67.0,61.7,30.30,ESE,115,0.0,0.0,83,0.00,,---,0.00,VWS V14.01,2013-06-21 12:10:00,
2013-06-21 08:15:00,67.7,61.3,30.30,ESE,115,0.0,0.0,80,0.00,,---,0.00,VWS V14.01,2013-06-21 12:15:00,
2013-06-21 08:20:00,68.0,62.0,30.30,ESE,115,0.0,0.0,81,0.00,,---,0.00,VWS V14.01,2013-06-21 12:20:00,
2013-06-21 08:25:00,68.9,61.0,30.30,ESE,115,0.0,0.0,76,0.00,,---,0.00,VWS V14.01,2013-06-21 12:25:00,
2013-06-21 08:30:00,69.5,59.7,30.30,ESE,115,0.0,0.0,71,0.00,,---,0.00,VWS V14.01,2013-06-21 12:30:00,
2013-06-21 08:35:00,70.0,59.8,30.30,ESE,115,0.0,0.0,70,0.00,,---,0.00,VWS V14.01,2013-06-21 12:35:00,
2013-06-21 08:40:00,70.8,59.3,30.30,ESE,115,0.0,0.0,67,0.00,,---,0.00,VWS V14.01,2013-06-21 12:40:00,
2013-06-21 08:45:00,70.8,59.3,30.30,ESE,115,0.0,0.0,67,0.00,,---,0.00,VWS V14.01,2013-06-21 12:45:00,
2013-06-21 08:50:00,70.4,58.9,30.30,ESE,115,0.0,0.0,67,0.00,,---,0.00,VWS V14.01,2013-06-21 12:50:00,
2013-06-21 08:55:00,70.4,60.6,30.30,ESE,115,0.0,0.0,71,0.00,,---,0.00,VWS V14.01,2013-06-21 12:55:00,
2013-06-21 09:00:00,70.4,59.8,30.30,ESE,115,0.0,0.0,69,0.00,,---,0.00,VWS V14.01,2013-06-21 13:00:00,
2013-06-21 09:05:00,70.9,60.6,30.30,ESE,115,0.0,0.0,70,0.00,,---,0.00,VWS V14.01,2013-06-21 13:05:00,
2013-06-21 09:10:00,71.3,60.6,30.29,ESE,115,0.0,0.0,69,0.00,,---,0.00,VWS V14.01,2013-06-21 13:10:00,
2013-06-21 09:15:00,71.3,60.2,30.29,ESE,115,0.0,1.0,68,0.00,,---,0.00,VWS V14.01,2013-06-21 13:15:00,
2013-06-21 09:20:00,72.0,60.5,30.29,ESE,115,0.0,1.0,67,0.00,,---,0.00,VWS V14.01,2013-06-21 13:20:00,
2013-06-21 09:25:00,72.2,61.5,30.29,ESE,115,0.0,1.0,69,0.00,,---,0.00,VWS V14.01,2013-06-21 13:25:00,
2013-06-21 09:30:00,72.0,60.5,30.29,ESE,115,1.0,1.0,67,0.00,,---,0.00,VWS V14.01,2013-06-21 13:30:00,
2013-06-21 09:35:00,73.7,62.1,30.29,ESE,115,0.0,1.0,67,0.00,,---,0.00,VWS V14.01,2013-06-21 13:35:00,
2013-06-21 09:40:00,72.5,60.1,30.29,WSW,244,1.0,2.0,65,0.00,,---,0.00,VWS V14.01,2013-06-21 13:40:00,
2013-06-21 09:45:00,72.8,62.0,30.29,West,261,2.0,2.0,69,0.00,,---,0.00,VWS V14.01,2013-06-21 13:45:00,
2013-06-21 09:50:00,73.4,61.4,30.29,ESE,120,0.0,2.0,66,0.00,,---,0.00,VWS V14.01,2013-06-21 13:50:00,
2013-06-21 09:55:00,74.4,61.4,30.29,ESE,120,1.0,2.0,64,0.00,,---,0.00,VWS V14.01,2013-06-21 13:55:00,
2013-06-21 10:00:00,73.5,61.5,30.28,East,97,1.0,2.0,66,0.00,,---,0.00,VWS V14.01,2013-06-21 14:00:00,
2013-06-21 10:06:00,75.1,63.0,30.28,East,96,0.0,1.0,66,0.00,,---,0.00,VWS V14.01,2013-06-21 14:06:00,
2013-06-21 10:11:00,75.5,60.7,30.28,West,281,0.0,2.0,60,0.00,,---,0.00,VWS V14.01,2013-06-21 14:11:00,
2013-06-21 10:16:00,76.2,62.2,30.28,West,261,0.0,3.0,62,0.00,,---,0.00,VWS V14.01,2013-06-21 14:16:00,
2013-06-21 10:21:00,76.3,60.5,30.29,South,191,0.0,3.0,58,0.00,,---,0.00,VWS V14.01,2013-06-21 14:21:00,
2013-06-21 10:26:00,76.3,61.4,30.28,WNW,300,0.0,3.0,60,0.00,,---,0.00,VWS V14.01,2013-06-21 14:26:00,
2013-06-21 10:30:00,76.2,62.2,30.29,SE,124,2.0,3.0,62,0.00,,---,0.00,VWS V14.01,2013-06-21 14:30:00,
2013-06-21 10:31:00,76.2,62.2,30.29,ESE,116,1.0,2.0,62,0.00,,---,0.00,VWS V14.01,2013-06-21 14:31:00,
2013-06-21 10:36:00,75.6,60.8,30.29,SE,134,0.0,2.0,60,0.00,,---,0.00,VWS V14.01,2013-06-21 14:36:00,
2013-06-21 10:41:00,74.7,62.2,30.29,East,101,1.0,2.0,65,0.00,,---,0.00,VWS V14.01,2013-06-21 14:41:00,
2013-06-21 10:46:00,75.1,61.7,30.29,East,81,0.0,2.0,63,0.00,,---,0.00,VWS V14.01,2013-06-21 14:46:00,
2013-06-21 10:50:00,76.4,64.2,30.29,NE,41,0.0,2.0,66,0.00,,---,0.00,VWS V14.01,2013-06-21 14:50:00,
2013-06-21 10:55:00,76.4,62.0,30.29,NW,304,0.0,3.0,61,0.00,,---,0.00,VWS V14.01,2013-06-21 14:55:00,
2013-06-21 11:00:00,78.6,64.0,30.28,West,267,1.0,1.0,61,0.00,,---,0.00,VWS V14.01,2013-06-21 15:00:00,
2013-06-21 11:05:00,78.2,62.2,30.29,ESE,108,1.0,2.0,58,0.00,,---,0.00,VWS V14.01,2013-06-21 15:05:00,
2013-06-21 11:11:00,77.3,60.9,30.29,ESE,114,1.0,4.0,57,0.00,,---,0.00,VWS V14.01,2013-06-21 15:11:00,
2013-06-21 11:16:00,77.1,63.1,30.29,ENE,73,0.0,4.0,62,0.00,,---,0.00,VWS V14.01,2013-06-21 15:16:00,
2013-06-21 11:21:00,77.1,60.2,30.29,ESE,106,0.0,4.0,56,0.00,,---,0.00,VWS V14.01,2013-06-21 15:21:00,
2013-06-21 11:26:00,77.7,61.8,30.29,NW,306,0.0,4.0,58,0.00,,---,0.00,VWS V14.01,2013-06-21 15:26:00,
2013-06-21 11:30:00,78.7,60.2,30.29,SE,124,2.0,4.0,53,0.00,,---,0.00,VWS V14.01,2013-06-21 15:30:00,
2013-06-21 11:31:00,78.7,60.2,30.28,SE,128,2.0,2.0,53,0.00,,---,0.00,VWS V14.01,2013-06-21 15:31:00,
2013-06-21 11:36:00,77.7,58.7,30.29,ESE,105,2.0,3.0,52,0.00,,---,0.00,VWS V14.01,2013-06-21 15:36:00,
2013-06-21 11:41:00,78.0,60.5,30.29,ESE,120,1.0,3.0,55,0.00,,---,0.00,VWS V14.01,2013-06-21 15:41:00,
2013-06-21 11:46:00,78.0,57.9,30.29,North,351,1.0,5.0,50,0.00,,---,0.00,VWS V14.01,2013-06-21 15:46:00,
2013-06-21 11:51:00,77.7,58.7,30.28,SE,124,1.0,5.0,52,0.00,,---,0.00,VWS V14.01,2013-06-21 15:51:00,
2013-06-21 11:56:00,78.0,59.0,30.29,North,4,0.0,5.0,52,0.00,,---,0.00,VWS V14.01,2013-06-21 15:56:00,
2013-06-21 12:00:00,78.0,56.7,30.29,ESE,103,2.0,5.0,48,0.00,,---,0.00,VWS V14.01,2013-06-21 16:00:00,
2013-06-21 12:01:00,78.0,56.7,30.29,ESE,102,1.0,2.0,48,0.00,,---,0.00,VWS V14.01,2013-06-21 16:01:00,
2013-06-21 12:06:00,77.6,57.5,30.29,East,79,1.0,3.0,50,0.00,,---,0.00,VWS V14.01,2013-06-21 16:06:00,
2013-06-21 12:11:00,78.5,57.8,30.28,East,98,2.0,4.0,49,0.00,,---,0.00,VWS V14.01,2013-06-21 16:11:00,
2013-06-21 12:16:00,79.1,58.3,30.29,East,90,1.0,4.0,49,0.00,,---,0.00,VWS V14.01,2013-06-21 16:16:00,
2013-06-21 12:21:00,79.1,58.9,30.29,ENE,66,0.0,4.0,50,0.00,,---,0.00,VWS V14.01,2013-06-21 16:21:00,
2013-06-21 12:26:00,79.4,57.4,30.28,SE,124,0.0,4.0,47,0.00,,---,0.00,VWS V14.01,2013-06-21 16:26:00,
2013-06-21 12:30:00,78.4,58.8,30.29,ESE,104,2.0,5.0,51,0.00,,---,0.00,VWS V14.01,2013-06-21 16:30:00,
2013-06-21 12:31:00,78.4,58.8,30.29,ESE,104,1.0,2.0,51,0.00,,---,0.00,VWS V14.01,2013-06-21 16:31:00,
2013-06-21 12:36:00,78.1,58.5,30.29,ESE,112,0.0,3.0,51,0.00,,---,0.00,VWS V14.01,2013-06-21 16:36:00,
2013-06-21 12:41:00,78.4,57.7,30.29,East,88,1.0,5.0,49,0.00,,---,0.00,VWS V14.01,2013-06-21 16:41:00,
2013-06-21 12:46:00,78.1,56.8,30.29,ESE,108,1.0,5.0,48,0.00,,---,0.00,VWS V14.01,2013-06-21 16:46:00,
2013-06-21 12:51:00,78.1,57.4,30.28,East,91,2.0,5.0,49,0.00,,---,0.00,VWS V14.01,2013-06-21 16:51:00,
2013-06-21 12:56:00,78.4,55.3,30.28,NNW,346,2.0,5.0,45,0.00,,---,0.00,VWS V14.01,2013-06-21 16:56:00,
2013-06-21 13:00:00,78.3,55.8,30.28,ESE,115,2.0,5.0,46,0.00,,---,0.00,VWS V14.01,2013-06-21 17:00:00,
2013-06-21 13:01:00,78.3,55.8,30.28,ESE,120,2.0,2.0,46,0.00,,---,0.00,VWS V14.01,2013-06-21 17:01:00,
2013-06-21 13:06:00,78.4,56.5,30.28,North,360,0.0,3.0,47,0.00,,---,0.00,VWS V14.01,2013-06-21 17:06:00,
2013-06-21 13:11:00,78.9,58.7,30.28,East,92,2.0,3.0,50,0.00,,---,0.00,VWS V14.01,2013-06-21 17:11:00,
2013-06-21 13:16:00,78.7,58.5,30.29,SW,233,1.0,5.0,50,0.00,,---,0.00,VWS V14.01,2013-06-21 17:16:00,
2013-06-21 13:21:00,78.7,56.8,30.29,ESE,113,0.0,5.0,47,0.00,,---,0.00,VWS V14.01,2013-06-21 17:21:00,
2013-06-21 13:26:00,78.8,56.9,30.28,ESE,104,1.0,5.0,47,0.00,,---,0.00,VWS V14.01,2013-06-21 17:26:00,
2013-06-21 13:30:00,78.6,57.3,30.28,SE,124,0.0,5.0,48,0.00,,---,0.00,VWS V14.01,2013-06-21 17:30:00,
2013-06-21 13:31:00,78.8,57.5,30.28,ESE,120,0.0,2.0,48,0.00,,---,0.00,VWS V14.01,2013-06-21 17:31:00,
2013-06-21 13:36:00,79.2,60.1,30.28,East,98,1.0,3.0,52,0.00,,---,0.00,VWS V14.01,2013-06-21 17:36:00,
2013-06-21 13:42:00,78.7,55.6,30.28,East,101,4.0,4.0,45,0.00,,---,0.00,VWS V14.01,2013-06-21 17:42:00,
2013-06-21 13:46:00,78.9,57.6,30.28,ENE,69,0.0,4.0,48,0.00,,---,0.00,VWS V14.01,2013-06-21 17:46:00,
2013-06-21 13:48:00,78.9,58.1,30.28,ENE,70,0.0,4.0,49,0.00,,---,0.00,VWS V14.01,2013-06-21 17:48:00,
2013-06-21 13:53:00,78.7,55.0,30.28,ESE,104,4.0,4.0,44,0.00,,---,0.00,VWS V14.01,2013-06-21 17:53:00,
2013-06-21 13:58:00,79.1,59.4,30.28,North,9,0.0,4.0,51,0.00,,---,0.00,VWS V14.01,2013-06-21 17:58:00,
2013-06-21 14:00:00,79.6,58.8,30.28,ENE,77,1.0,4.0,49,0.00,,---,0.00,VWS V14.01,2013-06-21 18:00:00,
2013-06-21 14:03:00,79.4,56.8,30.28,ESE,106,1.0,4.0,46,0.00,,---,0.00,VWS V14.01,2013-06-21 18:03:00,
2013-06-21 14:08:00,79.0,54.6,30.28,NE,47,2.0,5.0,43,0.00,,---,0.00,VWS V14.01,2013-06-21 18:08:00,
2013-06-21 14:13:00,78.7,55.0,30.27,ESE,103,1.0,5.0,44,0.00,,---,0.00,VWS V14.01,2013-06-21 18:13:00,
2013-06-21 14:18:00,78.4,55.3,30.27,ENE,78,1.0,5.0,45,0.00,,---,0.00,VWS V14.01,2013-06-21 18:18:00,
2013-06-21 14:23:00,79.3,53.6,30.27,ESE,117,3.0,5.0,41,0.00,,---,0.00,VWS V14.01,2013-06-21 18:23:00,
2013-06-21 14:29:00,78.5,55.4,30.27,ESE,103,4.0,7.0,45,0.00,,---,0.00,VWS V14.01,2013-06-21 18:29:00,
2013-06-21 14:30:00,78.8,55.7,30.27,East,89,2.0,7.0,45,0.00,,---,0.00,VWS V14.01,2013-06-21 18:30:00,
2013-06-21 14:33:00,79.4,53.0,30.27,WSW,240,0.0,4.0,40,0.00,,---,0.00,VWS V14.01,2013-06-21 18:33:00,
2013-06-21 14:38:00,80.4,55.9,30.27,WNW,289,1.0,4.0,43,0.00,,---,0.00,VWS V14.01,2013-06-21 18:38:00,
2013-06-21 14:43:00,80.4,52.5,30.27,ESE,103,2.0,5.0,38,0.00,,---,0.00,VWS V14.01,2013-06-21 18:43:00,
2013-06-21 14:45:00,79.8,54.7,30.27,East,89,2.0,5.0,42,0.00,,---,0.00,VWS V14.01,2013-06-21 18:45:00,
2013-06-21 14:50:00,79.5,51.7,30.28,East,81,0.0,5.0,38,0.00,,---,0.00,VWS V14.01,2013-06-21 18:50:00,
2013-06-21 14:55:00,80.3,50.9,30.28,SE,124,3.0,5.0,36,0.00,,---,0.00,VWS V14.01,2013-06-21 18:55:00,
2013-06-21 15:00:00,79.8,52.0,30.28,ESE,102,2.0,5.0,38,0.00,,---,0.00,VWS V14.01,2013-06-21 19:00:00,
2013-06-21 15:05:00,79.2,50.0,30.28,East,98,2.0,5.0,36,0.00,,---,0.00,VWS V14.01,2013-06-21 19:05:00,
2013-06-21 15:10:00,80.6,49.7,30.27,East,91,1.0,7.0,34,0.00,,---,0.00,VWS V14.01,2013-06-21 19:10:00,
2013-06-21 15:15:00,80.3,50.2,30.27,ESE,106,4.0,7.0,35,0.00,,---,0.00,VWS V14.01,2013-06-21 19:15:00,
2013-06-21 15:20:00,79.4,47.8,30.27,East,94,2.0,7.0,33,0.00,,---,0.00,VWS V14.01,2013-06-21 19:20:00,
2013-06-21 15:25:00,78.8,48.1,30.27,NE,52,2.0,7.0,34,0.00,,---,0.00,VWS V14.01,2013-06-21 19:25:00,
2013-06-21 15:30:00,79.4,44.4,30.27,NE,45,0.0,7.0,29,0.00,,---,0.00,VWS V14.01,2013-06-21 19:30:00,
2013-06-21 15:35:00,78.8,39.0,30.27,East,101,1.0,3.0,24,0.00,,---,0.00,VWS V14.01,2013-06-21 19:35:00,
2013-06-21 15:40:00,78.9,43.1,30.27,East,98,0.0,4.0,28,0.00,,---,0.00,VWS V14.01,2013-06-21 19:40:00,
2013-06-21 15:42:00,78.9,44.0,30.27,ESE,112,1.0,4.0,29,0.00,,---,0.00,VWS V14.01,2013-06-21 19:42:00,
2013-06-21 15:48:00,79.6,48.0,30.27,West,264,0.0,4.0,33,0.00,,---,0.00,VWS V14.01,2013-06-21 19:48:00,
2013-06-21 15:53:00,80.0,49.9,30.27,ESE,116,0.0,4.0,35,0.00,,---,0.00,VWS V14.01,2013-06-21 19:53:00,
2013-06-21 15:58:00,79.1,45.0,30.27,NE,34,1.0,4.0,30,0.00,,---,0.00,VWS V14.01,2013-06-21 19:58:00,
2013-06-21 16:00:00,79.2,48.4,30.27,ENE,72,1.0,4.0,34,0.00,,---,0.00,VWS V14.01,2013-06-21 20:00:00,
2013-06-21 16:03:00,79.6,46.3,30.26,SE,133,1.0,4.0,31,0.00,,---,0.00,VWS V14.01,2013-06-21 20:03:00,
2013-06-21 16:04:00,79.7,46.4,30.26,ESE,114,2.0,4.0,31,0.00,,---,0.00,VWS V14.01,2013-06-21 20:04:00,
2013-06-21 16:08:00,79.5,50.2,30.27,ESE,112,1.0,4.0,36,0.00,,---,0.00,VWS V14.01,2013-06-21 20:08:00,
2013-06-21 16:11:00,80.0,49.1,30.27,ESE,122,2.0,4.0,34,0.00,,---,0.00,VWS V14.01,2013-06-21 20:11:00,
2013-06-21 16:15:00,79.6,48.8,30.27,East,82,0.0,4.0,34,0.00,,---,0.00,VWS V14.01,2013-06-21 20:15:00,
2013-06-21 16:20:00,79.7,51.9,30.26,ENE,58,0.0,4.0,38,0.00,,---,0.00,VWS V14.01,2013-06-21 20:20:00,
2013-06-21 16:25:00,80.6,53.4,30.26,SE,143,2.0,4.0,39,0.00,,---,0.00,VWS V14.01,2013-06-21 20:25:00,
2013-06-21 16:30:00,80.3,50.9,30.26,East,92,2.0,4.0,36,0.00,,---,0.00,VWS V14.01,2013-06-21 20:30:00,
2013-06-21 16:35:00,79.4,52.3,30.26,ESE,107,0.0,2.0,39,0.00,,---,0.00,VWS V14.01,2013-06-21 20:35:00,
2013-06-21 16:40:00,79.9,55.4,30.26,ESE,106,0.0,2.0,43,0.00,,---,0.00,VWS V14.01,2013-06-21 20:40:00,
2013-06-21 16:45:00,79.4,56.8,30.25,ESE,120,1.0,2.0,46,0.00,,---,0.00,VWS V14.01,2013-06-21 20:45:00,
2013-06-21 16:50:00,79.2,57.8,30.25,ENE,70,0.0,3.0,48,0.00,,---,0.00,VWS V14.01,2013-06-21 20:50:00,
2013-06-21 16:55:00,78.9,60.9,30.25,West,273,1.0,3.0,54,0.00,,---,0.00,VWS V14.01,2013-06-21 20:55:00,
2013-06-21 17:00:00,79.4,58.6,30.25,East,84,1.0,4.0,49,0.00,,---,0.00,VWS V14.01,2013-06-21 21:00:00,
2013-06-21 17:04:00,79.2,59.0,30.24,East,84,1.0,2.0,50,0.00,,---,0.00,VWS V14.01,2013-06-21 21:04:00,
2013-06-21 17:09:00,79.2,57.8,30.24,ESE,113,0.0,4.0,48,0.00,,---,0.00,VWS V14.01,2013-06-21 21:09:00,
2013-06-21 17:14:00,79.5,56.3,30.24,South,185,0.0,4.0,45,0.00,,---,0.00,VWS V14.01,2013-06-21 21:14:00,
2013-06-21 17:19:00,79.0,58.8,30.24,East,89,1.0,4.0,50,0.00,,---,0.00,VWS V14.01,2013-06-21 21:19:00,
2013-06-21 17:24:00,78.5,59.4,30.24,ENE,76,1.0,4.0,52,0.00,,---,0.00,VWS V14.01,2013-06-21 21:24:00,
2013-06-21 17:29:00,78.0,61.5,30.24,East,87,2.0,4.0,57,0.00,,---,0.00,VWS V14.01,2013-06-21 21:29:00,
2013-06-21 17:30:00,78.2,60.7,30.24,East,94,0.0,4.0,55,0.00,,---,0.00,VWS V14.01,2013-06-21 21:30:00,
2013-06-21 17:34:00,78.3,60.8,30.24,ESE,117,1.0,2.0,55,0.00,,---,0.00,VWS V14.01,2013-06-21 21:34:00,
2013-06-21 17:39:00,78.2,58.6,30.24,East,94,3.0,4.0,51,0.00,,---,0.00,VWS V14.01,2013-06-21 21:39:00,
2013-06-21 17:44:00,78.3,57.6,30.24,East,95,1.0,5.0,49,0.00,,---,0.00,VWS V14.01,2013-06-21 21:44:00,
2013-06-21 17:49:00,78.4,59.3,30.23,East,101,0.0,5.0,52,0.00,,---,0.00,VWS V14.01,2013-06-21 21:49:00,
2013-06-21 17:54:00,78.7,58.0,30.24,ESE,102,0.0,5.0,49,0.00,,---,0.00,VWS V14.01,2013-06-21 21:54:00,
2013-06-21 17:59:00,78.9,55.8,30.24,SE,143,0.0,5.0,45,0.00,,---,0.00,VWS V14.01,2013-06-21 21:59:00,
2013-06-21 18:00:00,78.9,57.6,30.24,NNW,348,0.0,5.0,48,0.00,,---,0.00,VWS V14.01,2013-06-21 22:00:00,
2013-06-21 18:04:00,78.5,55.4,30.24,ESE,103,0.0,2.0,45,0.00,,---,0.00,VWS V14.01,2013-06-21 22:04:00,
2013-06-21 18:09:00,78.1,57.4,30.24,ESE,102,1.0,2.0,49,0.00,,---,0.00,VWS V14.01,2013-06-21 22:09:00,
2013-06-21 18:14:00,77.9,56.7,30.24,SSE,150,0.0,2.0,48,0.00,,---,0.00,VWS V14.01,2013-06-21 22:14:00,
2013-06-21 18:19:00,78.3,57.6,30.24,SSE,157,0.0,2.0,49,0.00,,---,0.00,VWS V14.01,2013-06-21 22:19:00,
2013-06-21 18:24:00,78.0,57.9,30.24,ESE,103,1.0,2.0,50,0.00,,---,0.00,VWS V14.01,2013-06-21 22:24:00,
2013-06-21 18:29:00,78.1,58.5,30.24,SE,128,0.0,2.0,51,0.00,,---,0.00,VWS V14.01,2013-06-21 22:29:00,
2013-06-21 18:30:00,78.1,58.0,30.23,SE,128,0.0,2.0,50,0.00,,---,0.00,VWS V14.01,2013-06-21 22:30:00,
2013-06-21 18:34:00,77.9,58.9,30.23,SE,131,0.0,1.0,52,0.00,,---,0.00,VWS V14.01,2013-06-21 22:34:00,
2013-06-21 18:39:00,77.3,59.4,30.24,SE,130,0.0,1.0,54,0.00,,---,0.00,VWS V14.01,2013-06-21 22:39:00,
2013-06-21 18:44:00,77.3,59.4,30.24,ESE,110,1.0,2.0,54,0.00,,---,0.00,VWS V14.01,2013-06-21 22:44:00,
2013-06-21 18:49:00,77.5,59.6,30.24,ESE,110,0.0,2.0,54,0.00,,---,0.00,VWS V14.01,2013-06-21 22:49:00,
2013-06-21 18:54:00,78.1,60.1,30.23,SSE,148,0.0,2.0,54,0.00,,---,0.00,VWS V14.01,2013-06-21 22:54:00,
2013-06-21 18:59:00,77.2,61.3,30.23,SSE,147,0.0,2.0,58,0.00,,---,0.00,VWS V14.01,2013-06-21 22:59:00,
2013-06-21 19:00:00,76.9,61.5,30.23,SSE,147,0.0,2.0,59,0.00,,---,0.00,VWS V14.01,2013-06-21 23:00:00,
2013-06-21 19:04:00,76.6,60.7,30.23,ESE,115,0.0,2.0,58,0.00,,---,0.00,VWS V14.01,2013-06-21 23:04:00,
2013-06-21 19:09:00,76.6,61.7,30.23,ESE,115,0.0,2.0,60,0.00,,---,0.00,VWS V14.01,2013-06-21 23:09:00,
2013-06-21 19:14:00,76.4,62.4,30.24,ESE,115,0.0,2.0,62,0.00,,---,0.00,VWS V14.01,2013-06-21 23:14:00,
2013-06-21 19:19:00,76.2,62.7,30.24,ESE,115,0.0,2.0,63,0.00,,---,0.00,VWS V14.01,2013-06-21 23:19:00,
2013-06-21 19:24:00,75.8,62.8,30.24,ESE,115,0.0,2.0,64,0.00,,---,0.00,VWS V14.01,2013-06-21 23:24:00,
2013-06-21 19:29:00,75.7,62.7,30.24,ESE,115,0.0,2.0,64,0.00,,---,0.00,VWS V14.01,2013-06-21 23:29:00,
2013-06-21 19:30:00,75.7,62.7,30.24,ESE,115,0.0,2.0,64,0.00,,---,0.00,VWS V14.01,2013-06-21 23:30:00,
2013-06-21 19:34:00,75.6,63.0,30.23,ESE,115,0.0,0.0,65,0.00,,---,0.00,VWS V14.01,2013-06-21 23:34:00,
2013-06-21 19:39:00,75.0,63.3,30.24,ESE,115,0.0,1.0,67,0.00,,---,0.00,VWS V14.01,2013-06-21 23:39:00,
2013-06-21 19:44:00,74.6,63.8,30.24,ESE,115,0.0,1.0,69,0.00,,---,0.00,VWS V14.01,2013-06-21 23:44:00,
2013-06-21 19:49:00,74.2,63.8,30.23,ESE,115,0.0,1.0,70,0.00,,---,0.00,VWS V14.01,2013-06-21 23:49:00,
2013-06-21 19:54:00,73.8,63.8,30.23,ESE,115,0.0,1.0,71,0.00,,---,0.00,VWS V14.01,2013-06-21 23:54:00,
2013-06-21 19:59:00,73.4,63.8,30.23,ESE,115,0.0,1.0,72,0.00,,---,0.00,VWS V14.01,2013-06-21 23:59:00,
2013-06-21 20:00:00,76.9,61.5,30.23,SSE,147,0.0,2.0,59,0.00,,---,0.00,VWS V14.01,2013-06-22 00:00:00,
2013-06-21 20:04:00,73.1,63.9,30.23,ESE,115,0.0,0.0,73,0.00,,---,0.00,VWS V14.01,2013-06-22 00:04:00,
2013-06-21 20:09:00,72.6,63.8,30.23,ESE,115,0.0,0.0,74,0.00,,---,0.00,VWS V14.01,2013-06-22 00:09:00,
2013-06-21 20:14:00,72.3,63.9,30.23,ESE,115,0.0,0.0,75,0.00,,---,0.00,VWS V14.01,2013-06-22 00:14:00,
2013-06-21 20:19:00,71.8,63.8,30.23,ESE,115,0.0,0.0,76,0.00,,---,0.00,VWS V14.01,2013-06-22 00:19:00,
2013-06-21 20:24:00,71.2,63.6,30.23,ESE,115,0.0,0.0,77,0.00,,---,0.00,VWS V14.01,2013-06-22 00:24:00,
2013-06-21 20:29:00,71.0,63.8,30.23,ESE,115,0.0,0.0,78,0.00,,---,0.00,VWS V14.01,2013-06-22 00:29:00,
2013-06-21 20:30:00,71.0,63.8,30.23,ESE,115,0.0,0.0,78,0.00,,---,0.00,VWS V14.01,2013-06-22 00:30:00,
2013-06-21 20:34:00,70.7,63.5,30.23,ESE,115,0.0,0.0,78,0.00,,---,0.00,VWS V14.01,2013-06-22 00:34:00,
2013-06-21 20:39:00,70.3,63.8,30.23,ESE,115,0.0,0.0,80,0.00,,---,0.00,VWS V14.01,2013-06-22 00:39:00,
2013-06-21 20:44:00,69.9,63.8,30.23,ESE,115,0.0,0.0,81,0.00,,---,0.00,VWS V14.01,2013-06-22 00:44:00,
2013-06-21 20:49:00,69.7,64.0,30.23,ESE,115,0.0,0.0,82,0.00,,---,0.00,VWS V14.01,2013-06-22 00:49:00,
2013-06-21 21:00:00,69.1,64.1,30.23,North,0,0.0,0.0,84,0.00,,---,0.00,VWS V14.01,2013-06-22 01:00:00,
2013-06-21 21:30:00,67.6,63.6,30.23,North,0,0.0,0.0,87,0.00,,---,0.00,VWS V14.01,2013-06-22 01:30:00,
2013-06-21 22:00:00,69.1,64.1,30.23,North,0,0.0,0.0,84,0.00,,---,0.00,VWS V14.01,2013-06-22 02:00:00,
2013-06-21 22:23:00,67.6,63.6,30.23,North,0,0.0,0.0,87,0.00,,---,0.00,VWS V14.01,2013-06-22 02:23:00,
2013-06-21 22:28:00,65.6,63.2,30.24,ESE,115,0.0,0.0,92,0.00,,---,0.00,VWS V14.01,2013-06-22 02:28:00,
2013-06-21 22:30:00,65.6,63.2,30.24,ESE,115,0.0,0.0,92,0.00,,---,0.00,VWS V14.01,2013-06-22 02:30:00,
2013-06-21 22:33:00,65.5,63.4,30.24,ESE,115,0.0,0.0,93,0.00,,---,0.00,VWS V14.01,2013-06-22 02:33:00,
2013-06-21 22:38:00,65.4,63.3,30.25,ESE,115,0.0,0.0,93,0.00,,---,0.00,VWS V14.01,2013-06-22 02:38:00,
2013-06-21 22:43:00,65.3,63.2,30.25,ESE,115,0.0,0.0,93,0.00,,---,0.00,VWS V14.01,2013-06-22 02:43:00,
2013-06-21 22:48:00,65.1,63.0,30.24,ESE,115,0.0,0.0,93,0.00,,---,0.00,VWS V14.01,2013-06-22 02:48:00,
2013-06-21 22:53:00,65.0,62.9,30.25,ESE,115,0.0,0.0,93,0.00,,---,0.00,VWS V14.01,2013-06-22 02:53:00,
2013-06-21 22:58:00,65.0,62.9,30.24,ESE,115,0.0,0.0,93,0.00,,---,0.00,VWS V14.01,2013-06-22 02:58:00,
2013-06-21 23:00:00,65.0,62.9,30.24,ESE,115,0.0,0.0,93,0.00,,---,0.00,VWS V14.01,2013-06-22 03:00:00,
2013-06-21 23:03:00,64.9,63.1,30.24,ESE,115,0.0,0.0,94,0.00,,---,0.00,VWS V14.01,2013-06-22 03:03:00,
2013-06-21 23:08:00,64.8,63.0,30.24,ESE,115,0.0,0.0,94,0.00,,---,0.00,VWS V14.01,2013-06-22 03:08:00,
2013-06-21 23:13:00,64.8,63.0,30.24,ESE,115,0.0,0.0,94,0.00,,---,0.00,VWS V14.01,2013-06-22 03:13:00,
2013-06-21 23:18:00,64.8,63.0,30.24,ESE,115,0.0,0.0,94,0.00,,---,0.00,VWS V14.01,2013-06-22 03:18:00,
2013-06-21 23:23:00,64.8,63.0,30.24,ESE,115,0.0,0.0,94,0.00,,---,0.00,VWS V14.01,2013-06-22 03:23:00,
2013-06-21 23:28:00,64.7,62.9,30.24,ESE,115,0.0,0.0,94,0.00,,---,0.00,VWS V14.01,2013-06-22 03:28:00,
2013-06-21 23:30:00,64.6,62.8,30.24,ESE,115,0.0,0.0,94,0.00,,---,0.00,VWS V14.01,2013-06-22 03:30:00,
2013-06-21 23:33:00,64.5,63.0,30.25,ESE,115,0.0,0.0,95,0.00,,---,0.00,VWS V14.01,2013-06-22 03:33:00,
2013-06-21 23:38:00,64.4,62.9,30.25,ESE,115,0.0,0.0,95,0.00,,---,0.00,VWS V14.01,2013-06-22 03:38:00,
2013-06-21 23:43:00,64.3,62.8,30.24,ESE,115,0.0,0.0,95,0.00,,---,0.00,VWS V14.01,2013-06-22 03:43:00,
2013-06-21 23:48:00,64.2,62.7,30.24,ESE,115,0.0,0.0,95,0.00,,---,0.00,VWS V14.01,2013-06-22 03:48:00,
2013-06-21 23:53:00,64.1,62.6,30.24,ESE,115,0.0,0.0,95,0.00,,---,0.00,VWS V14.01,2013-06-22 03:53:00,
2013-06-21 23:58:00,63.9,62.4,30.24,ESE,115,0.0,0.0,95,0.00,,---,0.00,VWS V14.01,2013-06-22 03:58:00,